Regional Weather Roundup
Issued by NWS Cleveland, OH

Home | Current Version | Previous Version | Graphics & Text | Print | Product List | Glossary On
Versions: 1 2 3 4 5 6 7 8 9 10 11 12 13 14 15 16 17 18 19 20 21 22 23 24 25 26 27 28 29 30 31 32 33 34 35 36 37 38 39 40 41 42 43 44 45 46 47 48 49 50
000
ASUS41 KCLE 260110
RWRCLE
OHIO REGIONAL WEATHER ROUNDUP
NATIONAL WEATHER SERVICE WILMINGTON, OH
900 PM EDT MON MAY 25 2015

NOTE: "FAIR" INDICATES FEW OR NO CLOUDS BELOW 12,000 FEET WITH NO
SIGNIFICANT WEATHER AND/OR OBSTRUCTIONS TO VISIBILITY.

OHZ001>008-015>018-024>027-034-035-043-044-260200-
   NORTHWEST OHIO

CITY           SKY/WX    TMP DP  RH WIND       PRES   REMARKS
DEFIANCE       MOCLDY    77  60  55 SW12G21   30.00R
FINDLAY        MOCLDY    74  62  66 S16       30.03R
TOLEDO EXPRESS MOCLDY    77  60  55 SW8       30.00R
TOLEDO EXEC    MOCLDY    78  59  51 SW13      30.01R
LIMA           MOCLDY    73  61  65 S10       30.05R
$$

OHZ009>014-019>023-028>033-038-089-260200-
   NORTHEAST OHIO

CITY           SKY/WX    TMP DP  RH WIND       PRES   REMARKS
CLE-HOPKINS    MOCLDY    76  59  55 SW12      30.06R
CLE-LAKEFRONT  CLEAR     78  59  51 S15G23    30.02R
CUY CO. ARPT   MOCLDY    79  61  53 SW15G23   30.05R
LORAIN-ELYRIA  CLEAR     76  59  55 SW20      30.04S
ASHTABULA      MOCLDY    75  62  64 SW14      30.05S
AKRON-CANTON   MOCLDY    77  60  55 SW15      30.08S
WOOSTER        CLOUDY    77  57  50 SW15G25   30.08R
MANSFIELD      MOCLDY    75  59  57 SW16G26   30.08R
YOUNGSTOWN     MOCLDY    74  62  66 S7        30.08S
$$

OHZ042-051>053-060>062-070>072-077>081-260200-
  SOUTHWEST OHIO

CITY           SKY/WX    TMP DP  RH WIND       PRES   REMARKS
CINC-COVINGTON CLOUDY    71  64  78 CALM      30.10S
CINC-LUNKEN    CLOUDY    71  65  81 CALM      30.09F
HAMILTON       CLOUDY    73  64  73 CALM      30.10F
DAYTON         MOCLDY    73  63  70 SW14G23   30.09S
WRIGHT-PAT AFB MOCLDY    73  63  72 S10       30.08F
DAYTON GENERAL CLOUDY    72  63  73 SW8       30.09F
WILMINGTON     MOCLDY    71  61  70 SW8       30.10F
$$

OHZ036-037-039>041-045>050-054>059-063>069-073>076-082>088-260200-
  CENTRAL AND SOUTHEAST OHIO

CITY           SKY/WX    TMP DP  RH WIND       PRES   REMARKS
COLUMBUS       MOCLDY    76  60  57 SW9       30.10R
OSU AIRPORT    PTCLDY    75  60  59 SW9       30.09S
BOLTON FIELD   NOT AVBL
RICKENBACK AFB CLEAR     74  60  60 SW13G20   30.09F
NEWARK         PTCLDY    76  59  55 SW12      30.10R
MARION         CLOUDY    75  61  61 SW10      30.09R
LANCASTER      PTCLDY    76  60  57 SW5       30.11R
ZANESVILLE     PTCLDY    75  61  61 SW7       30.11S
NEW PHILLY     MOCLDY    79  62  56 S8        30.10S
$$


USA.gov is the U.S. government's official web portal to all federal, state and local government web resources and services.